This is the latest recevied weather packets stored in our database for station/object IW9DKU-3. If no packets are shown the sender has not sent any weather packets the latest 10 day(s).
| Time | Temp. | Humidity | Pressure | Rain* | Wind** | Luminosity | Snow |
|---|---|---|---|---|---|---|---|
| 1777836775 | 20° C | 58% | 1027.9 hPa | - | - | - | - |
| 1777835571 | 20° C | 57% | 1027.8 hPa | - | - | - | - |
| 1777834368 | 20° C | 57% | 1027.6 hPa | - | - | - | - |
| 1777833164 | 20.56° C | 57% | 1027.5 hPa | - | - | - | - |
| 1777831961 | 20.56° C | 56% | 1027.3 hPa | - | - | - | - |
| 1777830757 | 20.56° C | 56% | 1027.1 hPa | - | - | - | - |
| 1777829554 | 20.56° C | 56% | 1027.1 hPa | - | - | - | - |
| 1777828351 | 20.56° C | 55% | 1027.1 hPa | - | - | - | - |
| 1777827147 | 21.11° C | 55% | 1027.1 hPa | - | - | - | - |
| 1777825944 | 21.11° C | 54% | 1027 hPa | - | - | - | - |
| 1777824740 | 21.11° C | 54% | 1027 hPa | - | - | - | - |
| 1777823537 | 21.11° C | 53% | 1027.1 hPa | - | - | - | - |
| 1777822333 | 21.11° C | 53% | 1027.1 hPa | - | - | - | - |
| 1777821130 | 21.11° C | 52% | 1027.1 hPa | - | - | - | - |
| 1777819926 | 21.11° C | 51% | 1026.9 hPa | - | - | - | - |
| 1777818723 | 21.11° C | 51% | 1027.1 hPa | - | - | - | - |
| 1777817519 | 21.11° C | 48% | 1027.1 hPa | - | - | - | - |
| 1777816442 | 21.11° C | 50% | 1027.4 hPa | - | - | - | - |
| 1777816316 | 21.11° C | 50% | 1027.4 hPa | - | - | - | - |
| 1777815112 | 21.67° C | 49% | 1027.5 hPa | - | - | - | - |
| 1777813909 | 21.11° C | 50% | 1027.6 hPa | - | - | - | - |
| 1777812706 | 21.11° C | 49% | 1027.7 hPa | - | - | - | - |
| 1777810298 | 21.11° C | 50% | 1028 hPa | - | - | - | - |
| 1777809095 | 21.11° C | 49% | 1028.1 hPa | - | - | - | - |
| 1777807891 | 20.56° C | 49% | 1028.2 hPa | - | - | - | - |
* Rain since midnight (hover to see other rain measurements)
** Current wind speed in m/s (hover to see current wind gust speed)